Location: Unspecified
(0.0000°N, 0.0000°E)
Time: 08:04:23
(UTC+00:00)

Vanguard 3 - All Passes

Search period start: 03 April 2020 00:00
Search period end: 13 April 2020 00:00
Orbit: 508 x 3263 km, 33.4° (Epoch: 02 April)

Date Brightness Start Highest point End Pass type
(mag) Time Alt. Az. Time Alt. Az. Time Alt. Az.
03 Apr - 01:06:26 10° NNW 01:12:53 14° N 01:18:05 10° NE visible
03 Apr - 03:21:12 10° NNW 03:29:42 29° NNE 03:35:05 10° E visible
03 Apr - 05:35:54 10° WNW 05:42:32 55° SW 05:46:45 10° SE visible
03 Apr - 14:32:32 10° SSW 14:40:31 29° SE 14:52:36 10° E daylight
03 Apr - 16:42:31 10° SW 16:54:43 86° SE 17:14:07 10° NE daylight
03 Apr - 18:57:05 10° W 19:12:06 44° NNW 19:30:33 10° NE visible
03 Apr - 21:19:35 10° WNW 21:32:42 21° NNW 21:45:05 10° NNE visible
03 Apr - 23:47:19 10° NNW 23:54:57 14° N 00:01:24 10° NNE visible
04 Apr - 02:05:07 10° NNW 02:13:58 21° NNE 02:20:06 10° ENE visible
04 Apr - 04:19:46 10° NW 04:28:41 65° NNE 04:33:48 10° ESE visible
04 Apr - 06:37:13 10° WSW 06:39:57 14° SW 06:42:17 10° S daylight
04 Apr - 13:22:07 10° SSE 13:25:37 13° SE 13:29:48 10° ESE daylight
04 Apr - 15:29:00 10° SW 15:38:56 57° SE 15:55:39 10° ENE daylight
04 Apr - 17:41:09 10° WSW 17:54:32 60° NNW 18:13:58 10° NE daylight
04 Apr - 19:59:19 10° WNW 20:13:44 28° NNW 20:29:20 10° NNE visible
04 Apr - 22:25:52 10° NW 22:36:00 16° N 22:44:55 10° NNE visible
05 Apr - 00:48:08 10° NNW 00:57:12 18° N 01:04:03 10° NE visible
05 Apr - 03:03:36 10° NW 03:13:56 38° NNE 03:20:03 10° E visible
05 Apr - 05:19:30 10° WNW 05:26:33 42° SW 05:30:59 10° SSE visible
05 Apr - 14:16:27 10° SSW 14:24:01 31° SE 14:35:57 10° E daylight
05 Apr - 16:26:34 10° WSW 16:37:52 85° NW 16:56:37 10° NE daylight
05 Apr - 18:41:24 10° W 18:55:21 38° NNW 19:13:07 10° NE visible
05 Apr - 21:04:04 10° NW 21:16:32 20° NNW 21:28:36 10° NNE visible
05 Apr - 23:29:41 10° NNW 23:39:13 16° N 23:47:02 10° NE visible
06 Apr - 01:47:07 10° NNW 01:58:11 27° NNE 02:05:23 10° ENE visible
06 Apr - 04:02:43 10° NW 04:12:45 85° NE 04:18:19 10° ESE visible
06 Apr - 06:22:09 10° WSW 06:23:59 11° SW 06:25:37 10° SSW daylight
06 Apr - 13:05:43 10° SSE 13:09:30 14° SE 13:14:12 10° ESE daylight
06 Apr - 15:13:02 10° SW 15:22:15 64° SE 15:38:24 10° ENE daylight
06 Apr - 17:25:23 10° WSW 17:37:46 53° NNW 17:56:21 10° NE daylight
06 Apr - 19:43:54 10° WNW 19:57:18 25° NNW 20:12:12 10° NNE visible
06 Apr - 22:09:31 10° NW 22:20:08 16° N 22:29:35 10° NNE visible
07 Apr - 00:30:03 10° NNW 00:41:23 22° NNE 00:49:34 10° ENE visible
07 Apr - 02:46:02 10° NW 02:58:01 50° NNE 03:04:48 10° ESE visible
07 Apr - 05:03:06 10° WNW 05:10:30 34° SW 05:15:10 10° SSE visible
07 Apr - 14:00:26 10° SSW 14:07:34 35° SE 14:19:14 10° ENE daylight
07 Apr - 16:10:45 10° WSW 16:21:10 74° NW 16:39:01 10° NE daylight
07 Apr - 18:25:55 10° W 18:38:47 33° NNW 18:55:34 10° NNE visible
07 Apr - 20:48:36 10° NW 21:00:28 19° N 21:12:13 10° NNE visible
07 Apr - 23:12:05 10° NNW 23:23:23 18° N 23:32:30 10° NE visible
08 Apr - 01:29:12 10° NW 01:42:16 34° NNE 01:50:23 10° E visible
08 Apr - 03:45:39 10° WNW 03:56:42 78° SW 04:02:43 10° SE visible
08 Apr - 12:49:23 10° S 12:53:21 15° SE 12:58:28 10° ESE daylight
08 Apr - 14:57:09 10° SW 15:05:40 73° SE 15:21:05 10° ENE daylight
08 Apr - 17:09:48 10° W 17:21:12 45° NNW 17:38:38 10° NE daylight
08 Apr - 19:28:41 10° WNW 19:41:02 23° NNW 19:55:03 10° NNE visible
08 Apr - 21:52:58 10° NNW 22:04:16 17° N 22:14:24 10° NE visible
09 Apr - 00:12:05 10° NNW 00:25:26 26° NNE 00:34:48 10° ENE visible
09 Apr - 02:28:28 10° NW 02:41:59 62° NNE 02:49:24 10° ESE visible
09 Apr - 04:46:44 10° W 04:54:21 29° SW 04:59:15 10° SSE visible
09 Apr - 13:44:29 10° SSW 13:51:09 40° SE 14:02:27 10° ENE daylight
09 Apr - 15:55:04 10° WSW 16:04:40 64° NNW 16:21:21 10° NE daylight
09 Apr - 18:10:39 10° WNW 18:22:25 29° NNW 18:37:56 10° NNE visible
09 Apr - 20:33:05 10° NW 20:44:29 18° N 20:55:59 10° NNE visible
09 Apr - 22:54:30 10° NNW 23:07:27 21° NNE 23:17:46 10° ENE visible
10 Apr - 01:11:21 10° NW 01:26:11 42° NNE 01:35:09 10° E visible
10 Apr - 03:28:35 10° WNW 03:40:29 65° SW 03:47:01 10° SE visible
10 Apr - 12:33:09 10° S 12:37:12 17° SE 12:42:37 10° E daylight
10 Apr - 14:41:23 10° SW 14:49:13 85° SE 15:03:43 10° NE daylight
10 Apr - 16:54:23 10° W 17:04:50 38° NNW 17:20:49 10° NE daylight
10 Apr - 19:13:36 10° NW 19:24:55 20° NNW 19:37:54 10° NNE visible
10 Apr - 21:36:17 10° NNW 21:48:20 18° N 21:59:17 10° NE visible
10 Apr - 23:54:11 10° NNW 00:09:19 31° NNE 00:19:46 10° E visible
11 Apr - 02:10:55 10° NW 02:25:46 76° NE 02:33:51 10° ESE visible
11 Apr - 04:30:23 10° W 04:38:09 26° SW 04:43:17 10° SSE visible
11 Apr - 13:28:36 10° SSW 13:34:49 46° SE 13:45:38 10° ENE daylight
11 Apr - 15:39:32 10° WSW 15:48:20 53° NNW 16:03:38 10° NE daylight
11 Apr - 17:55:35 10° WNW 18:06:13 25° NNW 18:20:15 10° NNE visible
11 Apr - 20:17:28 10° NW 20:28:33 17° N 20:39:55 10° NE visible
11 Apr - 22:36:56 10° NNW 22:51:20 25° NNE 23:02:50 10° ENE visible
12 Apr - 00:53:32 10° NW 01:09:56 51° NNE 01:19:46 10° ESE visible
12 Apr - 03:11:31 10° WNW 03:24:10 55° SW 03:31:14 10° SE visible
12 Apr - 12:17:00 10° S 12:21:03 19° SE 12:26:41 10° E daylight
12 Apr - 14:25:44 10° WSW 14:32:56 82° NW 14:46:20 10° NE daylight
12 Apr - 16:39:11 10° W 16:48:38 32° NNW 17:02:57 10° NE daylight
12 Apr - 18:58:40 10° NW 19:08:55 18° N 19:20:47 10° NNE visible
12 Apr - 21:19:28 10° NNW 21:32:19 20° NNE 21:44:08 10° NE visible
